Weather History for KAVP - April, 2013

Change the Weather History Date:

Thursday, April 18, 2013

  Actual Average Record
Temperature  
Mean Temperature 53 °F 50 °F  
Max Temperature 59 °F 60 °F 92 °F (1976)
Min Temperature 47 °F 39 °F 28 °F (2001)
Degree Days  
Heating Degree Days 12 15  
Month to date heating degree days 298 338  
Since 1 July heating degree days 5448 5815  
Cooling Degree Days 0 0  
Month to date cooling degree days 4 0  
Year to date cooling degree days 4 0  
Growing Degree Days 2 (Base 50)    
Moisture  
Dew Point 43 °F    
Average Humidity 63    
Maximum Humidity 86    
Minimum Humidity 40    
Precipitation  
Precipitation 0.00 in 0.11 in 0.80 in (1924)
Month to date precipitation 1.08 1.99  
Year to date precipitation 6.03 8.94  
Sea Level Pressure  
Sea Level Pressure 30.14 in    
Wind  
Wind Speed 6 mph (SE)    
Max Wind Speed 17 mph    
Max Gust Speed 33 mph    
Visibility 10 miles    
Events      
T = Trace of Precipitation, MM = Missing Value Source: NWS Daily Summary

Daily Weather History Graph

Daily Weather History Graph

Search for Another Location

Airport or City:

Trip Planner

Search our weather history database for the weather conditions in past years. The results will help you decide how hot, cold, wet, or windy it might be!

Date:

Astronomy

Apr. 18, 2013 Rise Set
Actual Time 6:18 AM EDT 7:46 PM EDT
Civil Twilight 5:49 AM EDT 8:15 PM EDT
Nautical Twilight 5:14 AM EDT 8:50 PM EDT
Astronomical Twilight 4:37 AM EDT 9:27 PM EDT
Moon 12:27 PM EDT (4/18) 2:00 AM EDT (4/18)
Length of Visible Light 14h 26m
Length of Day
13h 28m
First Quarter, 51% of the Moon is Illuminated
Apr 18
First Quarter
Apr 25
Full
May 2
Last Quarter
May 9
New
May 18
First Quarter

Hourly Weather History & Observations

Time (EDT) Temp. Dew Point Humidity Pressure Visibility Wind Dir Wind Speed Gust Speed Precip Events Conditions
12:54 AM 46.9 °F 33.1 °F 59% 30.26 in 10.0 mi Calm Calm - N/A   Clear
1:54 AM 51.1 °F 33.1 °F 50% 30.26 in 10.0 mi NE 5.8 mph - N/A   Clear
2:54 AM 51.1 °F 34.0 °F 52% 30.24 in 10.0 mi NNE 5.8 mph - N/A   Clear
3:54 AM 53.1 °F 35.1 °F 50% 30.23 in 10.0 mi Variable 6.9 mph - N/A   Scattered Clouds
4:54 AM 54.0 °F 34.0 °F 47% 30.21 in 10.0 mi East 3.5 mph - N/A   Overcast
5:54 AM 55.0 °F 33.1 °F 43% 30.20 in 10.0 mi Variable 3.5 mph - N/A   Overcast
6:54 AM 55.0 °F 32.0 °F 42% 30.22 in 10.0 mi Variable 5.8 mph - N/A   Overcast
7:54 AM 55.0 °F 32.0 °F 42% 30.22 in 10.0 mi Variable 3.5 mph - N/A   Overcast
8:54 AM 55.9 °F 33.1 °F 42% 30.24 in 10.0 mi Variable 6.9 mph - N/A   Overcast
9:54 AM 57.9 °F 34.0 °F 41% 30.22 in 10.0 mi Variable 3.5 mph - N/A   Overcast
10:54 AM 57.0 °F 36.0 °F 45% 30.23 in 10.0 mi Variable 6.9 mph 21.9 mph N/A   Overcast
11:54 AM 59.0 °F 36.0 °F 42% 30.22 in 10.0 mi Variable 5.8 mph - N/A   Overcast
12:54 PM 57.9 °F 39.0 °F 49% 30.20 in 10.0 mi SSW 9.2 mph 21.9 mph N/A   Overcast
1:24 PM 57.2 °F 42.8 °F 59% 30.18 in 10.0 mi South 6.9 mph 21.9 mph N/A   Overcast
1:54 PM 57.9 °F 44.1 °F 60% 30.17 in 10.0 mi Variable 4.6 mph - N/A   Overcast
2:54 PM 57.0 °F 46.9 °F 69% 30.15 in 10.0 mi SSE 8.1 mph - N/A   Overcast
3:54 PM 55.9 °F 48.0 °F 75% 30.13 in 10.0 mi SSE 3.5 mph - N/A   Overcast
4:54 PM 55.9 °F 48.9 °F 77% 30.12 in 10.0 mi Variable 4.6 mph - N/A   Overcast
5:54 PM 55.9 °F 48.9 °F 77% 30.11 in 10.0 mi Variable 5.8 mph - N/A   Overcast
6:45 PM 55.4 °F 48.2 °F 77% 30.10 in 10.0 mi Variable 4.6 mph - N/A   Mostly Cloudy
6:52 PM 57.2 °F 48.2 °F 72% 30.09 in 10.0 mi SSE 5.8 mph - N/A   Mostly Cloudy
6:54 PM 57.0 °F 48.9 °F 74% 30.09 in 10.0 mi Variable 3.5 mph - N/A   Mostly Cloudy
7:54 PM 57.0 °F 50.0 °F 77% 30.05 in 10.0 mi Variable 5.8 mph - N/A   Overcast
8:54 PM 57.0 °F 51.1 °F 81% 30.05 in 10.0 mi ENE 5.8 mph - N/A   Overcast
9:22 PM 57.2 °F 51.8 °F 82% 30.05 in 10.0 mi North 4.6 mph - N/A   Overcast
9:54 PM 57.9 °F 53.1 °F 84% 30.04 in 10.0 mi Calm Calm - N/A   Overcast
10:54 PM 59.0 °F 53.1 °F 81% 30.01 in 10.0 mi Variable 3.5 mph - N/A   Overcast
11:25 PM 59.0 °F 53.6 °F 82% 30.00 in 10.0 mi SW 10.4 mph 24.2 mph N/A   Mostly Cloudy
11:41 PM 59.0 °F 53.6 °F 82% 30.00 in 10.0 mi South 11.5 mph 31.1 mph N/A   Scattered Clouds
11:54 PM 59.0 °F 53.1 °F 81% 29.99 in 10.0 mi South 16.1 mph 29.9 mph N/A   Partly Cloudy